Weather WX

World > North America > United States > Illinois

Campbells Island, Illinois Regional Weather

Lat: 41.55N, Lon: 90.43W
Wx Zone: ILZ015
Warning FLW WEATHER ALERT - (More Info. Click Here) Warning
Feedback

Campbells Island, IL Regional Weather

Expires:201906270100;;129888
ASUS43 KLOT 270004
RWRIL 

ILLINOIS REGIONAL WEATHER ROUNDUP
NATIONAL WEATHER SERVICE CHICAGO/ROMEOVILLE IL
700 PM CDT WED JUN 26 2019

NOTE: "FAIR" INDICATES FEW OR NO CLOUDS BELOW 12,000 FEET WITH NO
SIGNIFICANT WEATHER AND/OR OBSTRUCTIONS TO VISIBILITY.

* THESE STATIONS ARE NOT UNDER NWS QUALITY CONTROL. THEY ALSO MAY NOT
  REPORT WEATHER SUCH AS PRECIPITATION OR FOG.


ILZ001-002-007-009-015-016-024-270100-
NORTHWEST ILLINOIS
  
CITY           SKY/WX    TMP DP  RH WIND       PRES   REMARKS
MOLINE         FAIR      90  67  46 W3        29.98S HX  93           
6HR MIN TEMP:  85; 6HR MAX TEMP:  91;                                

STERLING*      FAIR      88  70  55 CALM      30.01S HX  93           
SAVANNA*       FAIR      82  66  57 N5        30.01F HX  85           
$$


SKY/WX - Weather  TMP - Temperature  DP - Dew Point  RH - Relative Humidity
WIND - Wind Direction/Speed PRES - Barometric Pressure VSB - Visibility
WCI - Wind Chill Index E13G22 Wind - East Wind 13 mph/Gusts of 22 mph